User: anonymous   Login
Location: Caltech
(34.1382°N, 118.1253°W)
Time: 09:11:10
(UTC-07:00)
Language:

Tiros 1 despin weight - Orbit

View from above orbital plane
View from above orbital plane
View from above satellite
View from above satellite

Ground track
Ground track

The orbit data is extracted from the following two-line orbital elements,

1 00115U 60002D   16125.54499240  .00000591  00000-0  99099-4 0  9992
2 00115  48.1669 306.9373 0034710  99.8469 260.6365 14.82761829989578
Epoch (UTC): 04 May 2016 13:04:47
Eccentricity: 0.0034710
inclination: 48.1669°
perigee height: 596 km
apogee height: 645 km
right ascension of ascending node: 306.9373°
argument of perigee: 99.8469°
revolutions per day: 14.82761829
mean anomaly at epoch: 260.6365°
orbit number at epoch: 98957

The dashed part of the orbit path shows where the satellite is in the earth's shadow,  

DLR